contact:dominique.lefevre@mio.osupytheas.fr, maurice.libes@osupytheas.fr, didier.mallarino@osupytheas.fr
Project:EMSO http://www.emso-fr.org/EMSO-France
Depth: 2436.0 m
Title:EMSO Ligure Ouest : Data MII capteur CSTAR
DateTime,Latitude,Longitude,Instrument_Serial,Reference_Counts,Signal_Counts,Corrected_Signal_raw_counts,Calculated_Beam_c_inverse_meters,Internal_thermistor_counts
DateTime,Latitude,Longitude,Instrument_Serial,Reference_Counts,Signal_Counts,Corrected_Signal_raw_counts,Calculated_Beam_c_inverse_meters,Internal_thermistor_counts
2022-09-05T00:02:45,42.805,6.029,CST-1368DR,4593,5140,11914,01.082,551
2022-09-05T00:05:47,42.805,6.029,CST-1368DR,4593,5141,11917,01.081,551
2022-09-05T00:08:48,42.805,6.029,CST-1368DR,4593,5145,11926,01.078,551
2022-09-05T00:11:50,42.805,6.029,CST-1368DR,4593,5146,11928,01.078,551
2022-09-05T00:14:51,42.805,6.029,CST-1368DR,4593,5136,11904,01.086,551
2022-09-05T00:17:53,42.805,6.029,CST-1368DR,4593,5143,11922,01.080,551
2022-09-05T00:20:55,42.805,6.029,CST-1368DR,4593,5141,11917,01.081,551
2022-09-05T00:23:56,42.805,6.029,CST-1368DR,4593,5142,11918,01.081,551
2022-09-05T00:26:58,42.805,6.029,CST-1368DR,4593,5140,11914,01.082,551
2022-09-05T00:29:59,42.805,6.029,CST-1368DR,4593,5131,11894,01.089,550
2022-09-05T00:33:01,42.805,6.029,CST-1368DR,4593,5140,11914,01.082,551
2022-09-05T00:36:03,42.805,6.029,CST-1368DR,4593,5139,11912,01.083,551
2022-09-05T00:39:04,42.805,6.029,CST-1368DR,4593,5140,11914,01.082,551
2022-09-05T00:42:06,42.805,6.029,CST-1368DR,4593,5139,11912,01.083,551
2022-09-05T00:45:07,42.805,6.029,CST-1368DR,4593,5143,11922,01.080,551
2022-09-05T00:48:09,42.805,6.029,CST-1368DR,4593,5141,11917,01.081,551
2022-09-05T00:51:10,42.805,6.029,CST-1368DR,4593,5144,11923,01.079,551
2022-09-05T00:54:12,42.805,6.029,CST-1368DR,4593,5144,11924,01.079,551
2022-09-05T00:57:14,42.805,6.029,CST-1368DR,4593,5139,11911,01.083,551
2022-09-05T01:00:15,42.805,6.029,CST-1368DR,4593,5139,11912,01.083,551
2022-09-05T01:03:17,42.805,6.029,CST-1368DR,4593,5138,11909,01.084,551
2022-09-05T01:06:18,42.805,6.029,CST-1368DR,4593,5147,11930,01.077,550
2022-09-05T01:09:20,42.805,6.029,CST-1368DR,4593,5142,11919,01.081,551
2022-09-05T01:12:21,42.805,6.029,CST-1368DR,4593,5132,11896,01.088,551
2022-09-05T01:15:23,42.805,6.029,CST-1368DR,4593,5136,11904,01.086,551
2022-09-05T01:18:25,42.805,6.029,CST-1368DR,4593,5140,11915,01.082,551
2022-09-05T01:21:26,42.805,6.029,CST-1368DR,4593,5129,11888,01.091,551
2022-09-05T01:24:28,42.805,6.029,CST-1368DR,4593,5135,11903,01.086,551
2022-09-05T01:27:29,42.805,6.029,CST-1368DR,4593,5139,11912,01.083,551
2022-09-05T01:30:31,42.805,6.029,CST-1368DR,4593,5127,11883,01.093,551
2022-09-05T01:33:33,42.805,6.029,CST-1368DR,4593,5126,11881,01.093,551
2022-09-05T01:36:34,42.805,6.029,CST-1368DR,4593,5132,11896,01.088,551
2022-09-05T01:39:36,42.805,6.029,CST-1368DR,4593,5135,11903,01.086,551
2022-09-05T01:42:37,42.805,6.029,CST-1368DR,4593,5135,11902,01.086,551
2022-09-05T01:45:39,42.805,6.029,CST-1368DR,4593,5132,11896,01.088,551
2022-09-05T01:48:40,42.805,6.029,CST-1368DR,4593,5135,11902,01.086,551
2022-09-05T01:51:42,42.805,6.029,CST-1368DR,4593,5133,11899,01.087,551
2022-09-05T01:54:44,42.805,6.029,CST-1368DR,4593,5128,11887,01.091,551
2022-09-05T01:57:45,42.805,6.029,CST-1368DR,4593,5137,11908,01.084,551
2022-09-05T02:00:47,42.805,6.029,CST-1368DR,4593,5127,11884,01.092,551
2022-09-05T02:03:48,42.805,6.029,CST-1368DR,4593,5134,11901,01.087,551
2022-09-05T02:06:50,42.805,6.029,CST-1368DR,4593,5132,11895,01.089,551
2022-09-05T02:09:51,42.805,6.029,CST-1368DR,4593,5130,11891,01.090,551
2022-09-05T02:12:53,42.805,6.029,CST-1368DR,4593,5132,11896,01.088,551
2022-09-05T02:15:55,42.805,6.029,CST-1368DR,4593,5133,11897,01.088,551
2022-09-05T02:18:56,42.805,6.029,CST-1368DR,4593,5129,11888,01.091,551
2022-09-05T02:21:58,42.805,6.029,CST-1368DR,4593,5132,11895,01.089,551
2022-09-05T02:24:59,42.805,6.029,CST-1368DR,4593,5126,11881,01.093,551
2022-09-05T02:28:01,42.805,6.029,CST-1368DR,4593,5133,11897,01.088,551
2022-09-05T02:31:03,42.805,6.029,CST-1368DR,4593,5130,11892,01.090,551
2022-09-05T02:34:04,42.805,6.029,CST-1368DR,4593,5132,11895,01.089,551
2022-09-05T02:37:06,42.805,6.029,CST-1368DR,4593,5134,11900,01.087,551
2022-09-05T02:40:07,42.805,6.029,CST-1368DR,4593,5135,11903,01.086,551
2022-09-05T02:43:09,42.805,6.029,CST-1368DR,4593,5130,11891,01.090,551
2022-09-05T02:46:10,42.805,6.029,CST-1368DR,4593,5131,11894,01.089,551
2022-09-05T02:49:12,42.805,6.029,CST-1368DR,4593,5138,11910,01.084,551
2022-09-05T02:52:14,42.805,6.029,CST-1368DR,4593,5138,11909,01.084,551
2022-09-05T02:55:15,42.805,6.029,CST-1368DR,4593,5132,11896,01.088,551
2022-09-05T02:58:17,42.805,6.029,CST-1368DR,4593,5133,11898,01.088,551
2022-09-05T03:01:18,42.805,6.029,CST-1368DR,4593,5134,11901,01.087,551
2022-09-05T03:04:20,42.805,6.029,CST-1368DR,4593,5130,11891,01.090,551
2022-09-05T03:07:21,42.805,6.029,CST-1368DR,4593,5130,11890,01.090,551
2022-09-05T03:10:23,42.805,6.029,CST-1368DR,4593,5138,11909,01.084,551
2022-09-05T03:13:25,42.805,6.029,CST-1368DR,4593,5135,11902,01.086,551
2022-09-05T03:16:26,42.805,6.029,CST-1368DR,4593,5131,11893,01.089,551
2022-09-05T03:19:28,42.805,6.029,CST-1368DR,4593,5133,11897,01.088,551
2022-09-05T03:22:29,42.805,6.029,CST-1368DR,4593,5131,11892,01.090,551
2022-09-05T03:25:31,42.805,6.029,CST-1368DR,4593,5130,11892,01.090,551
2022-09-05T03:28:33,42.805,6.029,CST-1368DR,4593,5130,11892,01.090,551
2022-09-05T03:31:34,42.805,6.029,CST-1368DR,4593,5140,11915,01.082,551
2022-09-05T03:34:36,42.805,6.029,CST-1368DR,4593,5130,11892,01.090,551
2022-09-05T03:37:37,42.805,6.029,CST-1368DR,4593,5130,11891,01.090,551
2022-09-05T03:40:39,42.805,6.029,CST-1368DR,4593,5136,11904,01.086,551
2022-09-05T03:43:40,42.805,6.029,CST-1368DR,4593,5133,11898,01.088,551
2022-09-05T03:46:42,42.805,6.029,CST-1368DR,4593,5136,11906,01.085,551
2022-09-05T03:49:44,42.805,6.029,CST-1368DR,4593,5136,11904,01.086,551
2022-09-05T03:52:45,42.805,6.029,CST-1368DR,4593,5133,11897,01.088,551
2022-09-05T03:55:47,42.805,6.029,CST-1368DR,4593,5132,11895,01.089,551
2022-09-05T03:58:48,42.805,6.029,CST-1368DR,4593,5132,11895,01.089,551
2022-09-05T04:01:50,42.805,6.029,CST-1368DR,4593,5130,11891,01.090,551
2022-09-05T04:04:51,42.805,6.029,CST-1368DR,4593,5132,11896,01.088,551
2022-09-05T04:07:53,42.805,6.029,CST-1368DR,4593,5135,11902,01.086,551
2022-09-05T04:10:55,42.805,6.029,CST-1368DR,4593,5129,11888,01.091,551
2022-09-05T04:13:56,42.805,6.029,CST-1368DR,4593,5126,11881,01.093,551
2022-09-05T04:16:58,42.805,6.029,CST-1368DR,4593,5138,11909,01.084,551
2022-09-05T04:19:59,42.805,6.029,CST-1368DR,4593,5131,11894,01.089,551
2022-09-05T04:23:01,42.805,6.029,CST-1368DR,4593,5138,11909,01.084,551
2022-09-05T04:26:03,42.805,6.029,CST-1368DR,4593,5143,11921,01.080,551
2022-09-05T04:29:04,42.805,6.029,CST-1368DR,4593,5138,11909,01.084,551
2022-09-05T04:32:06,42.805,6.029,CST-1368DR,4593,5134,11901,01.087,551
2022-09-05T04:35:07,42.805,6.029,CST-1368DR,4593,5126,11881,01.093,551
2022-09-05T04:38:09,42.805,6.029,CST-1368DR,4593,5128,11886,01.092,551
2022-09-05T04:41:10,42.805,6.029,CST-1368DR,4593,5133,11897,01.088,551
2022-09-05T04:44:12,42.805,6.029,CST-1368DR,4593,5140,11915,01.082,551
2022-09-05T04:47:14,42.805,6.029,CST-1368DR,4593,5130,11891,01.090,551
2022-09-05T04:50:15,42.805,6.029,CST-1368DR,4593,5130,11891,01.090,551
2022-09-05T04:53:17,42.805,6.029,CST-1368DR,4593,5132,11895,01.089,551
2022-09-05T04:56:18,42.805,6.029,CST-1368DR,4593,5132,11895,01.089,551
2022-09-05T04:59:20,42.805,6.029,CST-1368DR,4593,5129,11889,01.091,551
2022-09-05T05:02:21,42.805,6.029,CST-1368DR,4593,5133,11899,01.087,551
2022-09-05T05:05:23,42.805,6.029,CST-1368DR,4593,5131,11894,01.089,551
2022-09-05T05:08:25,42.805,6.029,CST-1368DR,4593,5131,11894,01.089,551
2022-09-05T05:11:26,42.805,6.029,CST-1368DR,4593,5145,11925,01.079,551
2022-09-05T05:14:28,42.805,6.029,CST-1368DR,4593,5129,11889,01.091,551
2022-09-05T05:17:29,42.805,6.029,CST-1368DR,4593,5127,11884,01.092,551
2022-09-05T05:20:31,42.805,6.029,CST-1368DR,4593,5127,11884,01.092,551
2022-09-05T05:23:33,42.805,6.029,CST-1368DR,4593,5131,11892,01.090,551
2022-09-05T05:26:34,42.805,6.029,CST-1368DR,4593,5123,11876,01.095,551
2022-09-05T05:29:36,42.805,6.029,CST-1368DR,4593,5119,11865,01.099,551
2022-09-05T05:32:37,42.805,6.029,CST-1368DR,4593,5117,11861,01.100,551
2022-09-05T05:35:39,42.805,6.029,CST-1368DR,4593,5128,11887,01.091,551
2022-09-05T05:38:40,42.805,6.029,CST-1368DR,4593,5129,11888,01.091,551
2022-09-05T05:41:42,42.805,6.029,CST-1368DR,4593,5131,11894,01.089,551
2022-09-05T05:44:44,42.805,6.029,CST-1368DR,4593,5131,11893,01.089,551
2022-09-05T05:47:45,42.805,6.029,CST-1368DR,4593,5133,11899,01.087,551
2022-09-05T05:50:47,42.805,6.029,CST-1368DR,4593,5133,11898,01.088,551
2022-09-05T05:53:48,42.805,6.029,CST-1368DR,4593,5131,11894,01.089,551
2022-09-05T05:56:50,42.805,6.029,CST-1368DR,4593,5130,11890,01.090,551
2022-09-05T05:59:52,42.805,6.029,CST-1368DR,4593,5133,11898,01.088,551
2022-09-05T06:02:53,42.805,6.029,CST-1368DR,4593,5131,11894,01.089,551
2022-09-05T06:05:55,42.805,6.029,CST-1368DR,4593,5133,11897,01.088,551
2022-09-05T06:08:56,42.805,6.029,CST-1368DR,4593,5134,11901,01.087,551
2022-09-05T06:11:58,42.805,6.029,CST-1368DR,4593,5133,11898,01.088,551
2022-09-05T06:14:59,42.805,6.029,CST-1368DR,4593,5137,11908,01.084,551
2022-09-05T06:18:01,42.805,6.029,CST-1368DR,4593,5136,11906,01.085,551
2022-09-05T06:21:03,42.805,6.029,CST-1368DR,4593,5134,11901,01.087,551
2022-09-05T06:24:04,42.805,6.029,CST-1368DR,4593,5133,11897,01.088,551
2022-09-05T06:27:06,42.805,6.029,CST-1368DR,4593,5130,11891,01.090,551
2022-09-05T06:30:07,42.805,6.029,CST-1368DR,4593,5129,11888,01.091,551
2022-09-05T06:33:09,42.805,6.029,CST-1368DR,4593,5134,11899,01.087,551
2022-09-05T06:36:10,42.805,6.029,CST-1368DR,4593,5133,11897,01.088,551
2022-09-05T06:39:12,42.805,6.029,CST-1368DR,4593,5132,11896,01.088,551
2022-09-05T06:42:14,42.805,6.029,CST-1368DR,4593,5139,11912,01.083,551
2022-09-05T06:45:15,42.805,6.029,CST-1368DR,4593,5121,11870,01.097,551
2022-09-05T06:48:17,42.805,6.029,CST-1368DR,4593,5129,11888,01.091,551
2022-09-05T06:51:18,42.805,6.029,CST-1368DR,4593,5127,11884,01.092,551
2022-09-05T06:54:20,42.805,6.029,CST-1368DR,4593,5134,11899,01.087,551
2022-09-05T06:57:22,42.805,6.029,CST-1368DR,4593,5133,11898,01.088,551
2022-09-05T07:00:23,42.805,6.029,CST-1368DR,4593,5134,11901,01.087,551
2022-09-05T07:03:25,42.805,6.029,CST-1368DR,4593,5132,11896,01.088,551
2022-09-05T07:06:26,42.805,6.029,CST-1368DR,4593,5136,11904,01.086,551
2022-09-05T07:09:28,42.805,6.029,CST-1368DR,4593,5138,11909,01.084,551
2022-09-05T07:12:29,42.805,6.029,CST-1368DR,4593,5143,11921,01.080,551
2022-09-05T07:15:31,42.805,6.029,CST-1368DR,4593,5137,11906,01.085,551
2022-09-05T07:18:33,42.805,6.029,CST-1368DR,4593,5140,11914,01.082,551
2022-09-05T07:21:34,42.805,6.029,CST-1368DR,4593,5136,11904,01.086,551
2022-09-05T07:24:36,42.805,6.029,CST-1368DR,4593,5137,11907,01.085,551
2022-09-05T07:27:37,42.805,6.029,CST-1368DR,4593,5137,11906,01.085,551
2022-09-05T07:30:39,42.805,6.029,CST-1368DR,4593,5134,11900,01.087,551
2022-09-05T07:33:40,42.805,6.029,CST-1368DR,4593,5137,11906,01.085,551
2022-09-05T07:36:42,42.805,6.029,CST-1368DR,4593,5139,11911,01.083,551
2022-09-05T07:39:44,42.805,6.029,CST-1368DR,4593,5138,11910,01.084,551
2022-09-05T07:42:45,42.805,6.029,CST-1368DR,4593,5135,11902,01.086,551
2022-09-05T07:45:47,42.805,6.029,CST-1368DR,4593,5136,11906,01.085,551
2022-09-05T07:48:48,42.805,6.029,CST-1368DR,4593,5138,11910,01.084,551
2022-09-05T07:51:50,42.805,6.029,CST-1368DR,4593,5137,11908,01.084,551
2022-09-05T07:54:52,42.805,6.029,CST-1368DR,4593,5137,11907,01.085,551
2022-09-05T07:57:53,42.805,6.029,CST-1368DR,4592,5135,11905,01.085,551
2022-09-05T08:00:55,42.805,6.029,CST-1368DR,4593,5137,11907,01.085,551
2022-09-05T08:03:56,42.805,6.029,CST-1368DR,4593,5138,11910,01.084,551
2022-09-05T08:06:58,42.805,6.029,CST-1368DR,4592,5134,11903,01.086,551
2022-09-05T08:09:59,42.805,6.029,CST-1368DR,4592,5142,11922,01.080,551
2022-09-05T08:13:01,42.805,6.029,CST-1368DR,4592,5139,11915,01.082,551
2022-09-05T08:16:03,42.805,6.029,CST-1368DR,4592,5139,11915,01.082,551
2022-09-05T08:19:04,42.805,6.029,CST-1368DR,4592,5135,11906,01.085,551
2022-09-05T08:22:06,42.805,6.029,CST-1368DR,4592,5139,11914,01.082,551
2022-09-05T08:25:07,42.805,6.029,CST-1368DR,4592,5137,11910,01.084,551
2022-09-05T08:28:09,42.805,6.029,CST-1368DR,4592,5138,11912,01.083,551
2022-09-05T08:31:10,42.805,6.029,CST-1368DR,4592,5139,11915,01.082,551
2022-09-05T08:34:12,42.805,6.029,CST-1368DR,4592,5134,11904,01.086,551
2022-09-05T08:37:14,42.805,6.029,CST-1368DR,4592,5139,11915,01.082,551
2022-09-05T08:40:15,42.805,6.029,CST-1368DR,4592,5140,11916,01.082,551
2022-09-05T08:43:17,42.805,6.029,CST-1368DR,4592,5137,11909,01.084,551
2022-09-05T08:46:18,42.805,6.029,CST-1368DR,4592,5142,11922,01.080,551
2022-09-05T08:49:20,42.805,6.029,CST-1368DR,4592,5138,11912,01.083,551
2022-09-05T08:52:22,42.805,6.029,CST-1368DR,4592,5140,11916,01.082,551
2022-09-05T08:55:23,42.805,6.029,CST-1368DR,4592,5138,11912,01.083,551
2022-09-05T08:58:25,42.805,6.029,CST-1368DR,4592,5137,11909,01.084,551
2022-09-05T09:01:26,42.805,6.029,CST-1368DR,4592,5139,11915,01.082,551
2022-09-05T09:04:28,42.805,6.029,CST-1368DR,4592,5138,11911,01.083,551
2022-09-05T09:07:29,42.805,6.029,CST-1368DR,4592,5137,11911,01.083,551
2022-09-05T09:10:31,42.805,6.029,CST-1368DR,4592,5135,11906,01.085,550
2022-09-05T09:13:33,42.805,6.029,CST-1368DR,4591,5132,11900,01.087,551
2022-09-05T09:16:34,42.805,6.029,CST-1368DR,4591,5137,11911,01.083,551
2022-09-05T09:19:36,42.805,6.029,CST-1368DR,4591,5139,11917,01.081,551
2022-09-05T09:22:37,42.805,6.029,CST-1368DR,4591,5132,11900,01.087,551
2022-09-05T09:25:39,42.805,6.029,CST-1368DR,4591,5135,11908,01.084,551
2022-09-05T09:28:40,42.805,6.029,CST-1368DR,4591,5134,11905,01.085,551
2022-09-05T09:31:42,42.805,6.029,CST-1368DR,4591,5134,11905,01.085,551
2022-09-05T09:34:44,42.805,6.029,CST-1368DR,4591,5136,11911,01.083,551
2022-09-05T09:37:45,42.805,6.029,CST-1368DR,4591,5135,11907,01.085,551
2022-09-05T09:40:47,42.805,6.029,CST-1368DR,4591,5135,11907,01.085,551
2022-09-05T09:43:48,42.805,6.029,CST-1368DR,4591,5134,11905,01.085,551
2022-09-05T09:46:50,42.805,6.029,CST-1368DR,4591,5138,11914,01.082,551
2022-09-05T09:49:52,42.805,6.029,CST-1368DR,4591,5138,11914,01.082,551
2022-09-05T09:52:53,42.805,6.029,CST-1368DR,4592,5138,11913,01.083,551
2022-09-05T09:55:55,42.805,6.029,CST-1368DR,4592,5137,11909,01.084,551
2022-09-05T09:58:56,42.805,6.029,CST-1368DR,4592,5136,11908,01.084,551
2022-09-05T10:01:58,42.805,6.029,CST-1368DR,4592,5138,11912,01.083,551
2022-09-05T10:04:59,42.805,6.029,CST-1368DR,4592,5136,11907,01.085,551
2022-09-05T10:08:01,42.805,6.029,CST-1368DR,4592,5137,11909,01.084,551
2022-09-05T10:11:03,42.805,6.029,CST-1368DR,4592,5138,11911,01.083,551
2022-09-05T10:14:04,42.805,6.029,CST-1368DR,4592,5132,11897,01.088,551
2022-09-05T10:17:06,42.805,6.029,CST-1368DR,4592,5136,11907,01.085,551
2022-09-05T10:20:07,42.805,6.029,CST-1368DR,4592,5135,11904,01.086,551
2022-09-05T10:23:09,42.805,6.029,CST-1368DR,4592,5137,11909,01.084,551
2022-09-05T10:26:11,42.805,6.029,CST-1368DR,4592,5137,11911,01.083,551
2022-09-05T10:29:12,42.805,6.029,CST-1368DR,4592,5137,11911,01.083,551
2022-09-05T10:32:14,42.805,6.029,CST-1368DR,4592,5134,11902,01.086,551
2022-09-05T10:35:15,42.805,6.029,CST-1368DR,4592,5138,11912,01.083,551
2022-09-05T10:38:17,42.805,6.029,CST-1368DR,4592,5135,11905,01.085,551
2022-09-05T10:41:18,42.805,6.029,CST-1368DR,4592,5134,11904,01.086,551
2022-09-05T10:44:20,42.805,6.029,CST-1368DR,4592,5134,11903,01.086,551
2022-09-05T10:47:22,42.805,6.029,CST-1368DR,4592,5135,11906,01.085,551
2022-09-05T10:50:23,42.805,6.029,CST-1368DR,4592,5134,11902,01.086,551
2022-09-05T10:53:25,42.805,6.029,CST-1368DR,4592,5137,11911,01.083,551
2022-09-05T10:56:26,42.805,6.029,CST-1368DR,4592,5130,11894,01.089,551
2022-09-05T10:59:28,42.805,6.029,CST-1368DR,4592,5129,11890,01.090,551
2022-09-05T11:02:29,42.805,6.029,CST-1368DR,4592,5130,11893,01.089,551
2022-09-05T11:05:31,42.805,6.029,CST-1368DR,4592,5135,11905,01.085,551
2022-09-05T11:08:33,42.805,6.029,CST-1368DR,4592,5131,11895,01.089,551
2022-09-05T11:11:34,42.805,6.029,CST-1368DR,4592,5134,11902,01.086,551
2022-09-05T11:14:36,42.805,6.029,CST-1368DR,4592,5132,11897,01.088,551
2022-09-05T11:17:37,42.805,6.029,CST-1368DR,4592,5134,11902,01.086,551
2022-09-05T11:20:39,42.805,6.029,CST-1368DR,4592,5128,11888,01.091,551
2022-09-05T11:23:41,42.805,6.029,CST-1368DR,4592,5135,11904,01.086,551
2022-09-05T11:26:42,42.805,6.029,CST-1368DR,4592,5131,11896,01.088,551
2022-09-05T11:29:44,42.805,6.029,CST-1368DR,4592,5136,11906,01.085,551
2022-09-05T11:32:45,42.805,6.029,CST-1368DR,4592,5134,11904,01.086,551
2022-09-05T11:35:47,42.805,6.029,CST-1368DR,4592,5136,11908,01.084,551
2022-09-05T11:38:48,42.805,6.029,CST-1368DR,4592,5134,11903,01.086,551
2022-09-05T11:41:50,42.805,6.029,CST-1368DR,4592,5141,11920,01.080,551
2022-09-05T11:44:52,42.805,6.029,CST-1368DR,4592,5137,11909,01.084,551
2022-09-05T11:47:53,42.805,6.029,CST-1368DR,4592,5132,11897,01.088,551
2022-09-05T11:50:55,42.805,6.029,CST-1368DR,4592,5124,11880,01.094,551
2022-09-05T11:53:56,42.805,6.029,CST-1368DR,4592,5134,11902,01.086,551
2022-09-05T11:56:58,42.805,6.029,CST-1368DR,4592,5134,11904,01.086,551
2022-09-05T11:59:59,42.805,6.029,CST-1368DR,4592,5134,11904,01.086,551
2022-09-05T12:03:01,42.805,6.029,CST-1368DR,4592,5136,11907,01.085,551
2022-09-05T12:06:03,42.805,6.029,CST-1368DR,4592,5130,11894,01.089,551
2022-09-05T12:09:04,42.805,6.029,CST-1368DR,4592,5133,11901,01.087,551
2022-09-05T12:12:06,42.805,6.029,CST-1368DR,4592,5129,11890,01.090,551
2022-09-05T12:15:07,42.805,6.029,CST-1368DR,4592,5132,11898,01.088,551
2022-09-05T12:18:09,42.805,6.029,CST-1368DR,4592,5132,11897,01.088,551
2022-09-05T12:21:11,42.805,6.029,CST-1368DR,4592,5130,11894,01.089,551
2022-09-05T12:24:12,42.805,6.029,CST-1368DR,4592,5131,11895,01.089,551
2022-09-05T12:27:14,42.805,6.029,CST-1368DR,4592,5128,11889,01.091,551
2022-09-05T12:30:15,42.805,6.029,CST-1368DR,4592,5126,11884,01.092,551
2022-09-05T12:33:17,42.805,6.029,CST-1368DR,4592,5127,11887,01.091,551
2022-09-05T12:36:18,42.805,6.029,CST-1368DR,4592,5120,11870,01.097,551
2022-09-05T12:39:20,42.805,6.029,CST-1368DR,4592,5118,11866,01.098,551
2022-09-05T12:42:22,42.805,6.029,CST-1368DR,4592,5120,11869,01.097,551
2022-09-05T12:45:23,42.805,6.029,CST-1368DR,4592,5120,11869,01.097,551
2022-09-05T12:48:25,42.805,6.029,CST-1368DR,4592,5122,11875,01.095,551
2022-09-05T12:51:26,42.805,6.029,CST-1368DR,4592,5120,11871,01.097,551
2022-09-05T12:54:28,42.805,6.029,CST-1368DR,4592,5120,11869,01.097,551
2022-09-05T12:57:30,42.805,6.029,CST-1368DR,4592,5124,11879,01.094,551
2022-09-05T13:00:31,42.805,6.029,CST-1368DR,4592,5113,11854,01.103,551
2022-09-05T13:03:33,42.805,6.029,CST-1368DR,4592,5117,11864,01.099,551
2022-09-05T13:06:34,42.805,6.029,CST-1368DR,4592,5118,11866,01.098,551
2022-09-05T13:09:36,42.805,6.029,CST-1368DR,4592,5119,11867,01.098,551
2022-09-05T13:12:37,42.805,6.029,CST-1368DR,4592,5117,11862,01.100,551
2022-09-05T13:15:39,42.805,6.029,CST-1368DR,4592,5111,11849,01.104,551
2022-09-05T13:18:41,42.805,6.029,CST-1368DR,4592,5121,11873,01.096,551
2022-09-05T13:21:42,42.805,6.029,CST-1368DR,4592,5121,11873,01.096,551
2022-09-05T13:24:44,42.805,6.029,CST-1368DR,4592,5122,11876,01.095,551
2022-09-05T13:27:45,42.805,6.029,CST-1368DR,4592,5123,11877,01.095,551
2022-09-05T13:30:47,42.805,6.029,CST-1368DR,4592,5118,11865,01.099,551
2022-09-05T13:33:48,42.805,6.029,CST-1368DR,4592,5125,11882,01.093,551
2022-09-05T13:36:50,42.805,6.029,CST-1368DR,4592,5126,11885,01.092,551
2022-09-05T13:39:52,42.805,6.029,CST-1368DR,4592,5120,11871,01.097,551
2022-09-05T13:42:53,42.805,6.029,CST-1368DR,4592,5121,11873,01.096,551
2022-09-05T13:45:55,42.805,6.029,CST-1368DR,4592,5114,11856,01.102,551
2022-09-05T13:48:56,42.805,6.029,CST-1368DR,4592,5106,11839,01.108,551
2022-09-05T13:51:58,42.805,6.029,CST-1368DR,4592,5122,11875,01.095,551
2022-09-05T13:55:00,42.805,6.029,CST-1368DR,4592,5116,11862,01.100,551
2022-09-05T13:58:01,42.805,6.029,CST-1368DR,4592,5121,11872,01.096,551
2022-09-05T14:01:03,42.805,6.029,CST-1368DR,4592,5127,11886,01.092,551
2022-09-05T14:04:04,42.805,6.029,CST-1368DR,4592,5126,11884,01.092,551
2022-09-05T14:07:06,42.805,6.029,CST-1368DR,4592,5126,11885,01.092,551
2022-09-05T14:10:07,42.805,6.029,CST-1368DR,4592,5125,11882,01.093,551
2022-09-05T14:13:09,42.805,6.029,CST-1368DR,4592,5130,11893,01.089,551
2022-09-05T14:16:11,42.805,6.029,CST-1368DR,4592,5132,11897,01.088,551
2022-09-05T14:19:12,42.805,6.029,CST-1368DR,4592,5131,11896,01.088,551
2022-09-05T14:22:14,42.805,6.029,CST-1368DR,4592,5130,11894,01.089,551
2022-09-05T14:25:15,42.805,6.029,CST-1368DR,4592,5133,11901,01.087,551
2022-09-05T14:28:17,42.805,6.029,CST-1368DR,4592,5135,11904,01.086,551
2022-09-05T14:31:18,42.805,6.029,CST-1368DR,4592,5134,11903,01.086,551
2022-09-05T14:34:20,42.805,6.029,CST-1368DR,4592,5132,11897,01.088,551
2022-09-05T14:37:22,42.805,6.029,CST-1368DR,4592,5134,11902,01.086,551
2022-09-05T14:40:23,42.805,6.029,CST-1368DR,4592,5132,11898,01.088,551
2022-09-05T14:43:25,42.805,6.029,CST-1368DR,4592,5136,11907,01.085,551
2022-09-05T14:46:26,42.805,6.029,CST-1368DR,4592,5133,11901,01.087,551
2022-09-05T14:49:28,42.805,6.029,CST-1368DR,4592,5131,11895,01.089,551
2022-09-05T14:52:30,42.805,6.029,CST-1368DR,4592,5134,11902,01.086,551
2022-09-05T14:55:31,42.805,6.029,CST-1368DR,4592,5134,11902,01.086,551
2022-09-05T14:58:33,42.805,6.029,CST-1368DR,4592,5131,11897,01.088,551
2022-09-05T15:01:34,42.805,6.029,CST-1368DR,4592,5132,11898,01.088,551
2022-09-05T15:04:36,42.805,6.029,CST-1368DR,4592,5131,11897,01.088,551
2022-09-05T15:07:37,42.805,6.029,CST-1368DR,4592,5131,11895,01.089,551
2022-09-05T15:10:39,42.805,6.029,CST-1368DR,4592,5126,11883,01.093,551
2022-09-05T15:13:41,42.805,6.029,CST-1368DR,4592,5144,11926,01.078,551
2022-09-05T15:16:42,42.805,6.029,CST-1368DR,4592,5135,11905,01.085,551
2022-09-05T15:19:44,42.805,6.029,CST-1368DR,4592,5133,11900,01.087,551
2022-09-05T15:22:45,42.805,6.029,CST-1368DR,4592,5128,11889,01.091,551
2022-09-05T15:25:47,42.805,6.029,CST-1368DR,4592,5128,11889,01.091,551
2022-09-05T15:28:49,42.805,6.029,CST-1368DR,4592,5133,11901,01.087,551
2022-09-05T15:31:50,42.805,6.029,CST-1368DR,4592,5130,11893,01.089,551
2022-09-05T15:34:52,42.805,6.029,CST-1368DR,4592,5127,11887,01.091,551
2022-09-05T15:37:53,42.805,6.029,CST-1368DR,4592,5121,11872,01.096,551
2022-09-05T15:40:55,42.805,6.029,CST-1368DR,4592,5128,11888,01.091,551
2022-09-05T15:43:56,42.805,6.029,CST-1368DR,4592,5129,11891,01.090,551
2022-09-05T15:46:58,42.805,6.029,CST-1368DR,4592,5131,11895,01.089,551
2022-09-05T15:50:00,42.805,6.029,CST-1368DR,4592,5128,11889,01.091,551
2022-09-05T15:53:01,42.805,6.029,CST-1368DR,4592,5127,11887,01.091,551
2022-09-05T15:56:03,42.805,6.029,CST-1368DR,4592,5122,11875,01.095,551
2022-09-05T15:59:04,42.805,6.029,CST-1368DR,4592,5128,11889,01.091,551
2022-09-05T16:02:06,42.805,6.029,CST-1368DR,4592,5128,11888,01.091,551
2022-09-05T16:05:07,42.805,6.029,CST-1368DR,4592,5130,11893,01.089,551
2022-09-05T16:08:09,42.805,6.029,CST-1368DR,4592,5126,11884,01.092,551
2022-09-05T16:11:11,42.805,6.029,CST-1368DR,4592,5128,11890,01.090,551
2022-09-05T16:14:12,42.805,6.029,CST-1368DR,4592,5133,11901,01.087,551
2022-09-05T16:17:14,42.805,6.029,CST-1368DR,4592,5128,11888,01.091,551
2022-09-05T16:20:15,42.805,6.029,CST-1368DR,4592,5112,11851,01.104,551
2022-09-05T16:23:17,42.805,6.029,CST-1368DR,4592,5128,11888,01.091,551
2022-09-05T16:26:18,42.805,6.029,CST-1368DR,4592,5115,11858,01.101,551
2022-09-05T16:29:20,42.805,6.029,CST-1368DR,4592,5126,11884,01.092,551
2022-09-05T16:32:22,42.805,6.029,CST-1368DR,4592,5126,11884,01.092,551
2022-09-05T16:35:23,42.805,6.029,CST-1368DR,4592,5119,11867,01.098,551
2022-09-05T16:38:25,42.805,6.029,CST-1368DR,4592,5126,11884,01.092,551